KLM88Y LFKC-EHAM

Flight info

Callsign KLM88Y
Flight time N/A
Altitude 40000
Route MEGER DCT OTMUV DCT ESITE DCT CANNE Z651 ZUE T163 KOVAN/N0500F410 DCT RIMKI/N0499F400 Z99 LOHRE Z850 ARPEG/N0496F340 Z850 HMM T281 NORKU
Aircraft B748/H-SDE3FGHIM1M2RWXY/LB1

Departure

Time 2026-04-20 12:44
Airport Calvi Sainte Catherine Airport (LFKC)

Arrival

Time N/A
Airport Amsterdam Airport Schiphol (EHAM)
Time Latitude Longitude Altitude Speed Heading
2026-04-20 12:23 42.52508 8.79105 193 ft 0 kts 301°
2026-04-20 12:34 42.52504 8.79113 212 ft 4 kts 294°
2026-04-20 12:34 42.52496 8.79133 209 ft 4 kts 252°
2026-04-20 12:35 42.52499 8.79149 210 ft 4 kts 205°
2026-04-20 12:35 42.52522 8.79160 208 ft 4 kts 184°
2026-04-20 12:35 42.52535 8.79162 206 ft 1 kts 179°
2026-04-20 12:35 42.52537 8.79162 206 ft 0 kts 179°
2026-04-20 12:39 42.52530 8.79162 201 ft 2 kts 179°
2026-04-20 12:39 42.52503 8.79162 193 ft 5 kts 181°
2026-04-20 12:39 42.52461 8.79167 207 ft 5 kts 163°
2026-04-20 12:40 42.52441 8.79194 209 ft 4 kts 121°
2026-04-20 12:40 42.52435 8.79254 201 ft 10 kts 95°
2026-04-20 12:40 42.52416 8.79295 205 ft 3 kts 146°
2026-04-20 12:40 42.52392 8.79304 211 ft 6 kts 168°
2026-04-20 12:41 42.52337 8.79308 206 ft 10 kts 181°
2026-04-20 12:41 42.52254 8.79304 220 ft 13 kts 182°
2026-04-20 12:41 42.52176 8.79302 223 ft 9 kts 180°
2026-04-20 12:41 42.52120 8.79294 224 ft 7 kts 197°
2026-04-20 12:42 42.52079 8.79269 227 ft 5 kts 199°
2026-04-20 12:42 42.52065 8.79272 228 ft 1 kts 163°
2026-04-20 12:42 42.52060 8.79282 227 ft 1 kts 132°
2026-04-20 12:42 42.52059 8.79298 225 ft 2 kts 91°
2026-04-20 12:43 42.52070 8.79313 226 ft 2 kts 38°
2026-04-20 12:43 42.52085 8.79313 230 ft 3 kts 358°
2026-04-20 12:43 42.52087 8.79312 230 ft 0 kts 358°
2026-04-20 12:43 42.52117 8.79310 228 ft 26 kts 356°
2026-04-20 12:44 42.52666 8.79301 184 ft 130 kts 360°
2026-04-20 12:44 42.53849 8.79303 228 ft 201 kts 356°
2026-04-20 12:44 42.55240 8.79303 1528 ft 194 kts 356°
2026-04-20 12:44 42.56617 8.79304 2582 ft 208 kts 356°
2026-04-20 12:45 42.58150 8.79286 3307 ft 227 kts 356°
2026-04-20 12:45 42.59750 8.79346 4273 ft 238 kts
2026-04-20 12:45 42.61389 8.80257 5005 ft 275 kts 32°
2026-04-20 12:45 42.62851 8.82112 6122 ft 287 kts 49°
2026-04-20 12:46 42.64096 8.84235 7591 ft 291 kts 49°
2026-04-20 12:46 42.65405 8.86363 8892 ft 295 kts 45°
2026-04-20 12:46 42.66847 8.88405 10154 ft 300 kts 42°
2026-04-20 12:46 42.68366 8.90480 10852 ft 326 kts 43°
2026-04-20 12:47 42.70008 8.92813 11435 ft 355 kts 44°
2026-04-20 12:47 42.71774 8.95384 11969 ft 382 kts 44°
2026-04-20 12:47 42.73638 8.98072 12466 ft 409 kts 44°
2026-04-20 12:47 42.75644 9.00939 13368 ft 422 kts 44°
2026-04-20 12:48 42.77716 9.03906 13968 ft 434 kts 44°
2026-04-20 12:48 42.79772 9.06873 14012 ft 431 kts 44°
2026-04-20 12:48 42.81845 9.09865 14478 ft 430 kts 44°
2026-04-20 12:48 42.83895 9.12818 15643 ft 434 kts 44°
2026-04-20 12:49 42.86008 9.15780 16504 ft 440 kts 39°
2026-04-20 12:49 42.88507 9.18205 17451 ft 442 kts 26°
2026-04-20 12:49 42.91360 9.19854 18324 ft 443 kts 13°
2026-04-20 12:49 42.94355 9.20619 19153 ft 441 kts
2026-04-20 12:50 42.97418 9.20571 19964 ft 442 kts 353°
2026-04-20 12:50 43.00523 9.20319 20761 ft 446 kts 352°
2026-04-20 12:50 43.02606 9.20130 21295 ft 448 kts 352°
2026-04-20 12:50 43.06760 9.19769 22301 ft 454 kts 353°
2026-04-20 12:51 43.08866 9.19603 22778 ft 457 kts 353°
2026-04-20 12:51 43.12065 9.19348 23500 ft 460 kts 352°
2026-04-20 12:51 43.15249 9.19080 24078 ft 464 kts 352°
2026-04-20 12:51 43.18494 9.18804 24665 ft 467 kts 352°
2026-04-20 12:52 43.21745 9.18534 25206 ft 470 kts 352°
2026-04-20 12:52 43.25022 9.18264 25768 ft 473 kts 352°
2026-04-20 12:52 43.28336 9.17988 26315 ft 475 kts 352°
2026-04-20 12:52 43.31619 9.17712 26847 ft 478 kts 352°
2026-04-20 12:53 43.34957 9.17332 27368 ft 479 kts 349°
2026-04-20 12:53 43.38298 9.16859 27896 ft 483 kts 350°
2026-04-20 12:53 43.41623 9.16411 28422 ft 486 kts 350°
2026-04-20 12:53 43.45003 9.15950 28922 ft 488 kts 350°
2026-04-20 12:54 43.48393 9.15474 29632 ft 487 kts 349°
2026-04-20 12:54 43.51721 9.15008 30413 ft 483 kts 349°
2026-04-20 12:54 43.55081 9.14542 31039 ft 481 kts 349°
2026-04-20 12:54 43.58379 9.14084 31647 ft 479 kts 349°
2026-04-20 12:55 43.61702 9.13619 32244 ft 477 kts 349°
2026-04-20 12:55 43.64983 9.13160 32840 ft 475 kts 349°
2026-04-20 12:55 43.68287 9.12698 33415 ft 473 kts 349°
2026-04-20 12:55 43.71546 9.12243 33991 ft 471 kts 349°
2026-04-20 12:56 43.74781 9.11789 34435 ft 470 kts 349°
2026-04-20 12:56 43.78045 9.11330 34851 ft 470 kts 349°
2026-04-20 12:56 43.81309 9.10871 35275 ft 469 kts 349°
2026-04-20 12:56 43.84523 9.10420 35678 ft 469 kts 349°
2026-04-20 12:57 43.87788 9.09960 36074 ft 469 kts 349°
2026-04-20 12:57 43.91006 9.09506 36452 ft 468 kts 349°
2026-04-20 12:57 43.94254 9.09048 36833 ft 468 kts 349°
2026-04-20 12:57 43.97505 9.08589 37200 ft 468 kts 349°
2026-04-20 12:58 44.00755 9.08129 37562 ft 468 kts 349°
2026-04-20 12:58 44.03975 9.07674 37918 ft 468 kts 349°
2026-04-20 12:58 44.07224 9.07213 38247 ft 468 kts 349°
2026-04-20 12:58 44.10437 9.06757 38571 ft 468 kts 349°
2026-04-20 12:59 44.13687 9.06296 38842 ft 468 kts 349°
2026-04-20 12:59 44.16947 9.05832 39081 ft 469 kts 349°
2026-04-20 12:59 44.20170 9.05418 39305 ft 472 kts 352°
2026-04-20 12:59 44.23466 9.05201 39548 ft 473 kts 352°
2026-04-20 13:00 44.26769 9.04981 39797 ft 473 kts 352°
2026-04-20 13:00 44.30038 9.04755 39976 ft 475 kts 352°
2026-04-20 13:00 44.33380 9.04523 39959 ft 478 kts 352°
2026-04-20 13:01 44.39994 9.04080 39960 ft 475 kts 352°
2026-04-20 13:01 44.46571 9.03624 39945 ft 473 kts 352°
2026-04-20 13:02 44.53134 9.03177 39969 ft 475 kts 352°
2026-04-20 13:02 44.59753 9.02721 39970 ft 474 kts 352°
2026-04-20 13:03 44.66328 9.02270 39965 ft 474 kts 352°
2026-04-20 13:03 44.72887 9.01817 39960 ft 474 kts 352°
2026-04-20 13:04 44.79499 9.01359 39958 ft 474 kts 352°
2026-04-20 13:04 44.86055 9.00906 39964 ft 473 kts 352°
2026-04-20 13:05 44.92643 9.00447 39964 ft 474 kts 352°
2026-04-20 13:05 44.99238 8.99988 39974 ft 473 kts 352°
2026-04-20 13:06 45.05803 8.99529 39971 ft 474 kts 352°
2026-04-20 13:06 45.12374 8.99070 39972 ft 474 kts 352°
2026-04-20 13:07 45.18967 8.98607 39972 ft 475 kts 352°
2026-04-20 13:07 45.25551 8.98006 39955 ft 474 kts 351°
2026-04-20 13:08 45.32157 8.97337 39947 ft 474 kts 351°
2026-04-20 13:08 45.38696 8.96615 39951 ft 474 kts 351°
2026-04-20 13:09 45.45294 8.95913 39947 ft 473 kts 351°
2026-04-20 13:09 45.51836 8.95203 39951 ft 473 kts 351°
2026-04-20 13:10 45.58419 8.94490 39945 ft 474 kts 351°
2026-04-20 13:10 45.64974 8.93780 39947 ft 474 kts 351°
2026-04-20 13:11 45.71588 8.93060 39943 ft 474 kts 351°
2026-04-20 13:11 45.78147 8.92345 39944 ft 474 kts 351°
2026-04-20 13:12 45.84715 8.91627 39946 ft 475 kts 351°
2026-04-20 13:12 45.91282 8.90908 39942 ft 475 kts 351°
2026-04-20 13:13 45.97866 8.90185 39950 ft 475 kts 351°
2026-04-20 13:13 46.04469 8.89459 39946 ft 474 kts 351°
2026-04-20 13:14 46.11078 8.88729 39915 ft 475 kts 351°
2026-04-20 13:14 46.17655 8.87962 39920 ft 474 kts 349°
2026-04-20 13:15 46.24212 8.86981 39919 ft 476 kts 349°
2026-04-20 13:15 46.30816 8.85999 39917 ft 476 kts 349°
2026-04-20 13:16 46.37390 8.85004 39929 ft 476 kts 349°
2026-04-20 13:16 46.43999 8.84015 39939 ft 476 kts 349°
2026-04-20 13:17 46.50571 8.83018 39958 ft 477 kts 349°
2026-04-20 13:17 46.57170 8.82023 39969 ft 477 kts 349°
2026-04-20 13:18 46.63777 8.81020 39968 ft 475 kts 349°
2026-04-20 13:18 46.70323 8.80028 39988 ft 475 kts 349°
2026-04-20 13:19 46.76919 8.79025 40016 ft 476 kts 349°
2026-04-20 13:19 46.83523 8.78019 40030 ft 477 kts 349°
2026-04-20 13:20 46.90129 8.77008 40050 ft 477 kts 349°
2026-04-20 13:20 46.96707 8.76001 40061 ft 476 kts 349°
2026-04-20 13:21 47.03261 8.74958 40052 ft 475 kts 349°
2026-04-20 13:21 47.04383 8.74777 40058 ft 475 kts 349°